Location: Banksville Park
(38.5557°N, 75.1182°W)
Time: 06:54:05
(UTC+00:00)

MOS 1 - Pass Details

Date: 19 September 2020
Orbit: 878 x 891 km, 99.1° (Epoch: 18 October)

Event Time Altitude Azimuth Distance (km) Brightness Sun altitude
Exits shadow 00:31:11 25° 136° (SE) 1,731 5.3 -17.8°
Maximum altitude 00:34:22 52° 71° (ENE) 1,092 4.4 -18.4°
Drops below altitude 10° 00:39:53 10° 356° (N) 2,567 7.0 -19.4°
Sets 00:42:21 0° 352° (N) 3,510 7.8 -19.9°
